• In Lithuania
  • List of Countries
  • For 7 days
  • Water Temperature
  • Satellite Maps
  • Weather Map
  • Weather Widgets
  • user-avatar
    Login

    Hourly Weather Diphu

    Today, 20 June, Wednesday

    Time Temperature Precipitation Wind Pressure Humidity
    00:00 +26°C° 0 mm 0 mps 735 mmHg 92%
    01:00 +25°C° 0.3 mm 0 mps 735 mmHg 92%
    02:00 +25°C° 0.3 mm 0 mps 735 mmHg 92%
    03:00 +25°C° 0.3 mm 0 mps 735 mmHg 93%
    04:00 +25°C° 0.1 mm 0 mps 736 mmHg 92%
    05:00 +26°C° 0.1 mm 0 mps 736 mmHg 91%
    06:00 +26°C° 0 mm 0 mps 736 mmHg 91%
    07:00 +30°C° 0.3 mm 1 mps 736 mmHg 84%
    08:00 +32°C° 0.3 mm 1 mps 736 mmHg 78%
    09:00 +33°C° 0.3 mm 1 mps 736 mmHg 72%
    10:00 +34°C° 0.3 mm 1 mps 736 mmHg 65%
    11:00 +36°C° 0.3 mm 1 mps 736 mmHg 59%
    12:00 +37°C° 0 mm 1 mps 737 mmHg 52%
    13:00 +37°C° 0.2 mm 1 mps 736 mmHg 52%
    14:00 +37°C° 0.2 mm 1 mps 735 mmHg 51%
    15:00 +37°C° 0.2 mm 1 mps 735 mmHg 50%
    16:00 +36°C° 0.2 mm 1 mps 735 mmHg 58%
    17:00 +34°C° 0.2 mm 1 mps 734 mmHg 66%
    18:00 +33°C° 0.2 mm 1 mps 734 mmHg 74%
    19:00 +31°C° 0.2 mm 1 mps 735 mmHg 78%
    20:00 +28°C° 0.2 mm 0 mps 735 mmHg 81%
    21:00 +27°C° 0.2 mm 0 mps 736 mmHg 84%
    22:00 +27°C° 0.4 mm 0 mps 736 mmHg 86%
    23:00 +26°C° 0.4 mm 0 mps 736 mmHg 87%

    Tomorrow, 21 June, Thursday

    Time Temperature Precipitation Wind Pressure Humidity
    00:00 +26°C° 0.4 mm 0 mps 736 mmHg 88%
    01:00 +26°C° 0.6 mm 0 mps 736 mmHg 89%
    02:00 +28°C° 0.6 mm 1 mps 736 mmHg 90%
    03:00 +27°C° 0.6 mm 1 mps 736 mmHg 90%
    04:00 +27°C° 0.3 mm 1 mps 736 mmHg 90%
    05:00 +28°C° 0.3 mm 1 mps 736 mmHg 90%
    06:00 +28°C° 0.3 mm 1 mps 736 mmHg 90%
    07:00 +30°C° 0.3 mm 1 mps 737 mmHg 83%
    08:00 +32°C° 0.3 mm 1 mps 737 mmHg 76%
    09:00 +34°C° 0.3 mm 1 mps 737 mmHg 69%
    10:00 +34°C° 0.5 mm 1 mps 737 mmHg 66%
    11:00 +35°C° 0.5 mm 1 mps 737 mmHg 63%
    12:00 +36°C° 0.5 mm 1 mps 736 mmHg 61%
    13:00 +36°C° 1.3 mm 1 mps 736 mmHg 65%
    14:00 +36°C° 1.3 mm 2 mps 735 mmHg 70%
    15:00 +35°C° 1.3 mm 2 mps 734 mmHg 75%
    16:00 +33°C° 1.3 mm 1 mps 734 mmHg 79%
    17:00 +32°C° 1.3 mm 1 mps 734 mmHg 83%
    18:00 +29°C° 1.3 mm 0 mps 734 mmHg 88%
    19:00 +30°C° 1 mm 1 mps 734 mmHg 88%
    20:00 +29°C° 1 mm 1 mps 735 mmHg 89%
    21:00 +28°C° 1 mm 1 mps 735 mmHg 90%
    22:00 +28°C° 0.3 mm 1 mps 735 mmHg 91%
    23:00 +28°C° 0.3 mm 1 mps 735 mmHg 91%

    Day after tomorrow, 22 June, Friday

    Time Temperature Precipitation Wind Pressure Humidity
    00:00 +28°C° 0.3 mm 1 mps 735 mmHg 92%
    01:00 +28°C° 0.8 mm 1 mps 735 mmHg 92%
    02:00 +27°C° 0.8 mm 1 mps 735 mmHg 92%
    03:00 +27°C° 0.8 mm 1 mps 735 mmHg 92%
    04:00 +27°C° 0.8 mm 1 mps 735 mmHg 92%
    05:00 +27°C° 0.8 mm 1 mps 736 mmHg 92%
    06:00 +27°C° 0.8 mm 1 mps 736 mmHg 93%
    07:00 +29°C° 0.5 mm 1 mps 736 mmHg 89%
    08:00 +30°C° 0.5 mm 1 mps 737 mmHg 85%
    09:00 +31°C° 0.5 mm 1 mps 737 mmHg 82%
    10:00 +32°C° 1.3 mm 1 mps 737 mmHg 82%
    11:00 +32°C° 1.3 mm 1 mps 737 mmHg 82%
    12:00 +32°C° 1.3 mm 1 mps 737 mmHg 81%
    13:00 +32°C° 1.4 mm 1 mps 736 mmHg 84%
    14:00 +31°C° 1.4 mm 1 mps 735 mmHg 86%
    15:00 +31°C° 1.4 mm 1 mps 734 mmHg 89%
    16:00 +30°C° 0.6 mm 1 mps 734 mmHg 89%
    17:00 +30°C° 0.6 mm 1 mps 734 mmHg 89%
    18:00 +30°C° 0.6 mm 1 mps 734 mmHg 90%
    19:00 +29°C° 0.4 mm 1 mps 735 mmHg 90%
    20:00 +28°C° 0.4 mm 1 mps 735 mmHg 90%
    21:00 +28°C° 0.4 mm 1 mps 736 mmHg 90%
    22:00 +28°C° 0.4 mm 1 mps 736 mmHg 91%
    23:00 +27°C° 0.4 mm 1 mps 735 mmHg 92%

    23 June, Saturday

    Time Temperature Precipitation Wind Pressure Humidity
    00:00 +27°C° 0.4 mm 1 mps 735 mmHg 93%
    01:00 +27°C° 0.6 mm 1 mps 735 mmHg 93%
    02:00 +27°C° 0.6 mm 1 mps 735 mmHg 94%
    03:00 +27°C° 0.6 mm 1 mps 734 mmHg 95%
    04:00 +27°C° 0.3 mm 1 mps 735 mmHg 94%
    05:00 +27°C° 0.3 mm 1 mps 735 mmHg 94%
    06:00 +27°C° 0.3 mm 1 mps 735 mmHg 93%
    07:00 +28°C° 0.3 mm 1 mps 735 mmHg 89%
    08:00 +29°C° 0.3 mm 1 mps 736 mmHg 84%
    09:00 +30°C° 0.3 mm 1 mps 736 mmHg 80%
    10:00 +31°C° 0.7 mm 1 mps 736 mmHg 80%
    11:00 +31°C° 0.7 mm 1 mps 736 mmHg 79%
    12:00 +31°C° 0.7 mm 1 mps 736 mmHg 79%
    13:00 +31°C° 1.1 mm 1 mps 735 mmHg 83%
    14:00 +30°C° 1.1 mm 1 mps 734 mmHg 88%
    15:00 +30°C° 1.1 mm 1 mps 734 mmHg 92%
    16:00 +27°C° 0.7 mm 0 mps 734 mmHg 93%
    17:00 +27°C° 0.7 mm 0 mps 734 mmHg 93%
    18:00 +27°C° 0.7 mm 0 mps 734 mmHg 93%
    19:00 +26°C° 0.3 mm 0 mps 734 mmHg 94%
    20:00 +28°C° 0.3 mm 1 mps 734 mmHg 94%
    21:00 +27°C° 0.3 mm 1 mps 735 mmHg 94%
    22:00 +27°C° 0.3 mm 1 mps 735 mmHg 95%
    23:00 +27°C° 0.3 mm 1 mps 735 mmHg 95%

    24 June, Sunday

    Time Temperature Precipitation Wind Pressure Humidity
    00:00 +27°C° 0.3 mm 1 mps 735 mmHg 95%
    01:00 +27°C° 0.6 mm 1 mps 734 mmHg 95%
    02:00 +27°C° 0.6 mm 1 mps 734 mmHg 96%
    03:00 +27°C° 0.6 mm 1 mps 734 mmHg 96%
    04:00 +27°C° 0.5 mm 1 mps 734 mmHg 96%
    05:00 +27°C° 0.5 mm 1 mps 734 mmHg 95%
    06:00 +27°C° 0.5 mm 1 mps 735 mmHg 95%
    07:00 +27°C° 0.8 mm 1 mps 735 mmHg 95%
    08:00 +27°C° 0.8 mm 1 mps 735 mmHg 94%
    09:00 +27°C° 0.8 mm 1 mps 736 mmHg 94%
    10:00 +27°C° 0.5 mm 1 mps 736 mmHg 94%
    11:00 +27°C° 0.5 mm 1 mps 735 mmHg 93%
    12:00 +28°C° 0.5 mm 1 mps 735 mmHg 93%
    13:00 +28°C° 0.4 mm 1 mps 735 mmHg 92%
    14:00 +29°C° 0.4 mm 1 mps 734 mmHg 90%
    15:00 +29°C° 0.4 mm 1 mps 734 mmHg 88%
    16:00 +29°C° 0.5 mm 1 mps 734 mmHg 89%
    17:00 +27°C° 0.5 mm 0 mps 734 mmHg 90%
    18:00 +27°C° 0.5 mm 0 mps 734 mmHg 92%
    19:00 +26°C° 0.3 mm 0 mps 734 mmHg 92%
    20:00 +28°C° 0.3 mm 1 mps 735 mmHg 93%
    21:00 +27°C° 0.3 mm 1 mps 735 mmHg 94%
    22:00 +27°C° 0.2 mm 1 mps 735 mmHg 94%
    23:00 +27°C° 0.2 mm 1 mps 735 mmHg 94%

    25 June, Monday

    Time Temperature Precipitation Wind Pressure Humidity
    00:00 +27°C° 0.2 mm 1 mps 734 mmHg 94%
    01:00 +27°C° 0.8 mm 1 mps 734 mmHg 95%
    02:00 +26°C° 0.8 mm 1 mps 734 mmHg 96%
    03:00 +26°C° 0.8 mm 1 mps 734 mmHg 96%
    04:00 +26°C° 0.4 mm 1 mps 734 mmHg 96%
    05:00 +26°C° 0.4 mm 1 mps 734 mmHg 96%
    06:00 +27°C° 0.4 mm 1 mps 734 mmHg 95%
    07:00 +27°C° 0.3 mm 1 mps 735 mmHg 94%
    08:00 +27°C° 0.3 mm 1 mps 735 mmHg 92%
    09:00 +28°C° 0.3 mm 1 mps 735 mmHg 91%
    10:00 +29°C° 0.1 mm 1 mps 735 mmHg 84%
    11:00 +31°C° 0.1 mm 1 mps 735 mmHg 77%
    12:00 +32°C° 0.1 mm 2 mps 735 mmHg 70%
    13:00 +32°C° 0.9 mm 2 mps 734 mmHg 76%
    14:00 +32°C° 0.9 mm 2 mps 734 mmHg 81%
    15:00 +31°C° 0.9 mm 1 mps 733 mmHg 87%
    16:00 +30°C° 0.8 mm 1 mps 733 mmHg 89%
    17:00 +29°C° 0.8 mm 1 mps 733 mmHg 92%
    18:00 +29°C° 0.8 mm 1 mps 733 mmHg 94%
    19:00 +28°C° 0.6 mm 1 mps 734 mmHg 95%
    20:00 +28°C° 0.6 mm 1 mps 734 mmHg 95%
    21:00 +27°C° 0.6 mm 1 mps 735 mmHg 96%
    22:00 +27°C° 0.3 mm 1 mps 734 mmHg 96%
    23:00 +27°C° 0.3 mm 1 mps 734 mmHg 96%
    Show more